This demonstration page uses our WeatherBlox Daily Observations layout. Learn more.

Left ArrowRight Arrow

44.8408, -93.29828

Hourly Observations for November 1, 2019

Temp ( °F °C ) Dew Point ( °F °C ) Humidity (%) Winds ( mph kmh ) Pressure ( in mb ) Visibility ( mi km ) Precip ( " mm )
12:53 am 00:53 Mostly Cloudy 33 0.6 18 -7.8 54 54 SSW 5 7 30.00 1016 10 16 0.00 0.00
1:53 am 01:53 Cloudy 34 1.1 17 -8.3 50 50 SSW 7 11 29.99 1016 10 16 0.00 0.00
2:53 am 02:53 Cloudy 35 1.7 16 -8.9 46 46 SSW 7 11 29.98 1015 10 16 0.00 0.00
3:53 am 03:53 Cloudy 35 1.7 17 -8.3 48 48 WSW 5 7 29.98 1015 10 16 0.00 0.00
4:53 am 04:53 Cloudy 36 2.2 19 -7.2 50 50 W 12 19 29.99 1016 10 16 0.00 0.00
5:53 am 05:53 Cloudy with Light Snow 32 0 27 -2.8 82 82 WSW 7 11 30.00 1016 7 11 0.00 0.00
6:53 am 06:53 Cloudy 33 0.6 29 -1.7 85 85 WSW 9 15 30.01 1016 10 16 0.00 0.00
7:19 am 07:19 Cloudy 33 0.6 29 -1.7 85 85 SW 8 13 30.02 1017 10 16 0.00 0.00
7:53 am 07:53 Cloudy 34 1.1 29 -1.7 82 82 SW 8 13 30.02 1017 10 16 0.00 0.00
8:25 am 08:25 Cloudy 34 1.1 30 -1.1 85 85 WSW 7 11 30.03 1017 10 16 0.00 0.00
8:42 am 08:42 Cloudy 34 1.1 30 -1.1 85 85 WSW 7 11 30.04 1017 10 16 0.00 0.00
8:53 am 08:53 Cloudy 35 1.7 30 -1.1 82 82 W 6 9 30.03 1017 10 16 0.00 0.00
9:18 am 09:18 Cloudy 36 2.2 31 -0.6 82 82 W 7 11 30.04 1017 10 16 0.00 0.00
9:34 am 09:34 Cloudy 36 2.2 31 -0.6 82 82 WSW 8 13 30.04 1017 10 16 0.00 0.00
9:53 am 09:53 Cloudy 37 2.8 31 -0.6 79 79 WSW 6 9 30.04 1017 10 16 0.00 0.00
10:42 am 10:42 Cloudy 38 3.3 32 0 79 79 WSW 8 13 30.04 1017 10 16 0.00 0.00
10:53 am 10:53 Cloudy 38 3.3 32 0 79 79 WSW 8 13 30.04 1017 10 16 0.00 0.00
11:48 am 11:48 Cloudy 39 4 32 0 75 75 W 10 17 30.06 1018 10 16 0.00 0.00
11:53 am 11:53 Cloudy 40 4.4 32 0 73 73 W 12 19 30.05 1018 10 16 0.00 0.00
12:15 pm 12:15 Cloudy 40 4.4 32 0 73 73 W 13 20 30.06 1018 10 16 0.00 0.00
12:36 pm 12:36 Cloudy 41 5 32 0 70 70 WNW 12 19 30.06 1018 10 16 0.00 0.00
12:53 pm 12:53 Cloudy 40 4.4 32 0 73 73 WNW 9 15 30.05 1018 10 16 0.00 0.00
1:06 pm 13:06 Cloudy 41 5 31 -0.6 67 67 WNW 12 19 30.06 1018 10 16 0.00 0.00
1:53 pm 13:53 Cloudy 41 5 30 -1.1 65 65 WNW 10 17 30.05 1018 10 16 0.00 0.00
2:11 pm 14:11 Cloudy 41 5 30 -1.1 65 65 WNW 10 17 30.06 1018 10 16 0.00 0.00
2:49 pm 14:49 Cloudy 41 5 28 -2 61 61 W 14 22 30.06 1018 10 16 0.00 0.00
2:53 pm 14:53 Cloudy 41 5 29 -1.7 62 62 WNW 12 19 30.05 1018 10 16 0.00 0.00
3:53 pm 15:53 Cloudy 41 5 29 -1.7 62 62 WNW 13 20 30.06 1018 10 16 0.00 0.00
4:53 pm 16:53 Cloudy 41 5 28 -2.2 60 60 W 10 17 30.07 1018 10 16 0.00 0.00
5:53 pm 17:53 Cloudy 41 5 28 -2.2 60 60 W 6 9 30.07 1018 10 16 0.00 0.00
6:53 pm 18:53 Cloudy with Drizzle 41 5 28 -2.2 60 60 W 10 17 30.09 1019 10 16 0.00 0.00
7:53 pm 19:53 Cloudy 39 3.9 29 -1.7 67 67 NW 6 9 30.09 1019 10 16 0.00 0.00
8:53 pm 20:53 Cloudy 40 4.4 29 -1.7 65 65 W 5 7 30.08 1019 10 16 0.00 0.00
9:53 pm 21:53 Cloudy 40 4.4 30 -1.1 68 68 WSW 6 9 30.08 1019 10 16 0.00 0.00
10:46 pm 22:46 Cloudy with Rain 37 2.8 32 0 82 82 NW 14 22 30.10 1019 6 10 0.01 0.25
10:53 pm 22:53 Cloudy with Light Rain/Snow 36 2.2 32 0 86 86 NNW 14 22 30.09 1019 6 10 0.02 0.51
11:01 pm 23:01 Cloudy with Light Snow 34 1.1 31 -0.6 89 89 NW 13 20 30.11 1020 2 3 0.02 0.51
11:04 pm 23:04 Cloudy with Light Snow 33 0.6 31 -0.6 92 92 NW 10 17 30.11 1020 1 2 0.03 0.76
11:18 pm 23:18 Cloudy with Light Snow 33 0.6 32 0 96 96 WNW 7 11 30.11 1020 2 3 0.05 1.27
11:20 pm 23:20 Cloudy with Light Snow 33 0.6 32 0 96 96 WNW 6 9 30.11 1020 3 5 0.05 1.27
11:25 pm 23:25 Cloudy with Light Snow 33 0.6 32 0 96 96 WNW 3 6 30.10 1019 7 11 0.05 1.27
11:34 pm 23:34 Cloudy 34 1.1 32 0 92 92 Calm 30.10 1019 9 14 0.05 1.27
11:44 pm 23:44 Cloudy 34 1.1 31 -0.6 89 89 WNW 5 7 30.11 1020 9 14 0.05 1.27
11:53 pm 23:53 Mostly Cloudy 34 1.1 32 0 92 92 W 5 7 30.09 1019 7 11 0.05 1.27

Powered by AerisWeather